Location: Hopkins Observatory
(42.6965°N, 73.1843°W)
Time: 22:16:19
(UTC-04:00)

Amateur Radio Satellites - All Passes

Search period start: 22 October 2014 21:46
Search period end: 23 October 2014 21:46
Location: Hopkins Observatory, 42.6965°N, 73.1843°W

Satellite Date Start Highest point End Downlink Frequencies (MHz)
Time Altitude Azimuth
SO-50 22 Oct 21:46:41 21:51:16 42° 49° (NE) 21:55:54 436.795 FM
Oscar 11 22 Oct 21:50:05 21:54:25 86° 257° (WSW) 21:58:47 145.825 FM, Beacon 2401.500 USB
KITSAT 1 22 Oct 21:56:28 22:04:36 87° 59° (ENE) 22:12:41 435.175 FM
ZACube-1 22 Oct 22:32:26 22:37:02 72° 258° (WSW) 22:41:35 437.345 MHz
HO-68 22 Oct 22:38:10 22:43:06 20° 269° (W) 22:48:04 435.675 MHz FM
UKube-1 22 Oct 22:43:47 22:47:02 20° 266° (W) 22:50:19 145.840 MHz, 145.915 MHz
RS-15 22 Oct 22:50:37 23:01:31 72° 118° (ESE) 23:12:22 29.354 - 29.394 USB, Beacon 29.352 USB
FUNcube-1 22 Oct 23:18:49 23:22:35 25° 266° (W) 23:26:20 145.950 - 145.970 MHz USB
UOSAT-12 22 Oct 23:23:13 23:27:36 36° 48° (NE) 23:31:54 437.025 FM, 437.400 FM
SO-50 22 Oct 23:27:35 23:31:40 27° 247° (WSW) 23:35:46 436.795 FM
KITSAT 1 22 Oct 23:53:30 23:58:58 20° 258° (WSW) 00:04:27 435.175 FM
MaSat-1 23 Oct 00:32:02 00:36:16 86° 115° (ESE) 00:40:06 437.345 MHz
UOSAT-12 23 Oct 01:03:33 01:07:40 30° 246° (WSW) 01:11:42 437.025 FM, 437.400 FM
RS-15 23 Oct 01:04:41 01:14:44 40° 323° (NW) 01:24:54 29.354 - 29.394 USB, Beacon 29.352 USB
JAS-1B 23 Oct 01:15:14 01:19:44 18° 93° (E) 01:24:41 435.800 - 435.900 CW/SSB
Oscar 16 23 Oct 01:25:16 01:28:53 19° 92° (E) 01:32:28 437.025 USB, Beacon 2401.1428
AO-Echo 23 Oct 01:38:45 01:41:27 14° 89° (E) 01:44:08 ?
Uribyol 2 23 Oct 01:42:42 01:44:11 11° 88° (E) 01:45:40 436.500 FM
ITAMSAT 1 23 Oct 01:47:46 01:49:42 12° 88° (E) 01:51:37 435.822 SSB
MaSat-1 23 Oct 02:11:29 02:12:22 11° 311° (NW) 02:13:14 437.345 MHz
Oscar 19 23 Oct 02:18:04 02:23:07 58° 101° (E) 02:28:09 437.125 CW, 437.150 USB
AO-27 23 Oct 02:30:38 02:35:18 32° 96° (E) 02:39:55 436.795 MHz FM
Oscar 16 23 Oct 03:03:34 03:08:33 53° 289° (WNW) 03:13:30 437.025 USB, Beacon 2401.1428
JAS-1B 23 Oct 03:04:17 03:10:46 80° 287° (WNW) 03:18:33 435.800 - 435.900 CW/SSB
Sapphire 23 Oct 03:05:20 03:06:52 11° 101° (ESE) 03:08:24 437.095 MHz 1200 baud AX-25 AFSK
AO-Echo 23 Oct 03:15:27 03:20:45 77° 286° (WNW) 03:26:04 ?
Uribyol 2 23 Oct 03:19:06 03:24:21 88° 285° (WNW) 03:29:33 436.500 FM
RS-15 23 Oct 03:23:09 03:31:17 23° 357° (N) 03:39:34 29.354 - 29.394 USB, Beacon 29.352 USB
ITAMSAT 1 23 Oct 03:24:35 03:29:50 84° 285° (WNW) 03:35:03 435.822 SSB
PCSat 23 Oct 03:25:30 03:29:20 20° 106° (ESE) 03:33:10 145.825 MHz
Gurwin Techsat 1B 23 Oct 03:31:58 03:37:15 62° 101° (E) 03:42:30 435.225 FM
AO-7 23 Oct 03:34:20 03:38:45 15° 88° (E) 03:43:09 29.400 - 29.500 MHz
TMSAT-1 23 Oct 03:44:36 03:49:52 60° 101° (E) 03:55:05 436.925 FM
Oscar 19 23 Oct 03:58:30 04:02:00 19° 298° (WNW) 04:05:30 437.125 CW, 437.150 USB
OPAL 23 Oct 04:01:37 04:05:40 24° 62° (ENE) 04:09:42 ?
AO-27 23 Oct 04:10:06 04:14:46 34° 293° (WNW) 04:19:25 436.795 MHz FM
Sapphire 23 Oct 04:43:59 04:49:24 84° 119° (ESE) 04:54:51 437.095 MHz 1200 baud AX-25 AFSK
AO-Echo 23 Oct 04:56:57 04:58:38 12° 303° (WNW) 05:00:19 ?
JAS-1B 23 Oct 04:57:18 05:00:41 15° 303° (WNW) 05:04:19 435.800 - 435.900 CW/SSB
Uosat F 23 Oct 04:58:42 05:03:32 43° 99° (E) 05:08:19 435.120 FM
Uribyol 2 23 Oct 05:00:48 05:03:02 13° 303° (WNW) 05:05:16 436.500 FM
ITAMSAT 1 23 Oct 05:06:29 05:08:30 12° 303° (WNW) 05:10:31 435.822 SSB
PCSat 23 Oct 05:06:54 05:12:15 60° 304° (WNW) 05:17:38 145.825 MHz
Gurwin Techsat 1B 23 Oct 05:13:05 05:16:43 19° 299° (WNW) 05:20:22 435.225 FM
JAS-2 23 Oct 05:15:00 05:21:17 26° 91° (E) 05:27:34 435.800 - 435.900 CW/SSB, 435.910 FM
AO-7 23 Oct 05:24:25 05:32:47 78° 107° (ESE) 05:41:07 29.400 - 29.500 MHz
TMSAT-1 23 Oct 05:25:36 05:29:18 20° 298° (WNW) 05:33:00 436.925 FM
RS-15 23 Oct 05:38:25 05:48:15 35° 32° (NNE) 05:58:22 29.354 - 29.394 USB, Beacon 29.352 USB
OPAL 23 Oct 05:39:19 05:44:16 46° 258° (WSW) 05:49:12 ?
STRAND 1 23 Oct 05:42:55 05:46:46 22° 63° (ENE) 05:50:38 ?
Hamsat 23 Oct 05:53:35 05:56:47 21° 94° (E) 06:00:00 145.90 MHz
Sapphire 23 Oct 06:29:46 06:33:32 19° 319° (NW) 06:37:19 437.095 MHz 1200 baud AX-25 AFSK
Uosat F 23 Oct 06:38:03 06:42:03 24° 296° (WNW) 06:46:02 435.120 FM
PCSat 23 Oct 06:54:20 06:56:50 13° 325° (NW) 06:59:20 145.825 MHz
SO-67 23 Oct 06:56:40 06:57:45 11° 91° (E) 06:58:49 435.3500 MHz FM
JAS-2 23 Oct 06:59:06 07:06:46 71° 288° (WNW) 07:14:32 435.800 - 435.900 CW/SSB, 435.910 FM
AO-7 23 Oct 07:18:15 07:24:46 27° 307° (NW) 07:31:17 29.400 - 29.500 MHz
STRAND 1 23 Oct 07:20:38 07:25:36 50° 260° (W) 07:30:37 ?
Hamsat 23 Oct 07:29:02 07:32:48 33° 290° (WNW) 07:36:35 145.90 MHz
RS-15 23 Oct 07:50:56 08:02:09 89° 238° (WSW) 08:13:51 29.354 - 29.394 USB, Beacon 29.352 USB
HO-68 23 Oct 08:17:17 08:20:20 13° 87° (E) 08:23:21 435.675 MHz FM
SO-67 23 Oct 08:27:40 08:30:57 41° 287° (WNW) 08:34:12 435.3500 MHz FM
Saudisat 1A 23 Oct 08:28:21 08:32:44 90° 125° (SE) 08:37:10 436.775 MHz
MaSat-1 23 Oct 08:44:22 08:44:49 10° 49° (NE) 08:45:15 437.345 MHz
JAS-2 23 Oct 08:46:08 08:50:31 17° 306° (NW) 08:55:00 435.800 - 435.900 CW/SSB, 435.910 FM
Oscar 11 23 Oct 09:38:09 09:40:51 16° 92° (E) 09:43:32 145.825 FM, Beacon 2401.500 USB
HO-68 23 Oct 10:01:54 10:09:08 77° 105° (ESE) 10:16:19 435.675 MHz FM
RS-15 23 Oct 10:04:59 10:13:02 23° 259° (W) 10:21:20 29.354 - 29.394 USB, Beacon 29.352 USB
Saudisat 1A 23 Oct 10:10:23 10:12:57 15° 323° (NW) 10:15:31 436.775 MHz
MaSat-1 23 Oct 10:18:23 10:20:40 26° 250° (WSW) 10:22:47 437.345 MHz
ZACube-1 23 Oct 10:21:57 10:25:08 20° 93° (E) 10:28:15 437.345 MHz
UKube-1 23 Oct 10:29:48 10:34:09 63° 102° (ESE) 10:38:28 145.840 MHz, 145.915 MHz
FUNcube-1 23 Oct 11:06:22 11:10:38 62° 101° (E) 11:14:46 145.950 - 145.970 MHz USB
Oscar 11 23 Oct 11:13:09 11:17:16 46° 288° (WNW) 11:21:23 145.825 FM, Beacon 2401.500 USB
Sapphire 23 Oct 11:49:08 11:52:25 16° 38° (NE) 11:55:42 437.095 MHz 1200 baud AX-25 AFSK
HO-68 23 Oct 11:50:45 11:56:07 23° 304° (NW) 12:01:28 435.675 MHz FM
ZACube-1 23 Oct 11:57:44 12:01:39 35° 290° (WNW) 12:05:29 437.345 MHz
Oscar 19 23 Oct 12:00:01 12:02:13 13° 58° (ENE) 12:04:25 437.125 CW, 437.150 USB
JAS-1B 23 Oct 12:04:53 12:07:43 14° 57° (ENE) 12:10:31 435.800 - 435.900 CW/SSB
UKube-1 23 Oct 12:07:35 12:09:49 14° 299° (WNW) 12:12:03 145.840 MHz, 145.915 MHz
PCSat 23 Oct 12:11:20 12:15:37 23° 44° (NE) 12:19:53 145.825 MHz
KITSAT 1 23 Oct 12:25:09 12:32:57 56° 114° (ESE) 12:40:47 435.175 FM
ISS 23 Oct 12:26:21 12:27:51 13° 130° (SE) 12:29:21 145.800 FM
Oscar 16 23 Oct 12:42:43 12:47:12 31° 66° (ENE) 12:51:42 437.025 USB, Beacon 2401.1428
FUNcube-1 23 Oct 12:44:30 12:46:28 13° 298° (WNW) 12:48:25 145.950 - 145.970 MHz USB
AO-Echo 23 Oct 12:52:23 12:55:47 19° 62° (ENE) 12:59:16 ?
Uribyol 2 23 Oct 13:00:10 13:03:57 21° 62° (ENE) 13:07:45 436.500 FM
ITAMSAT 1 23 Oct 13:05:38 13:09:31 22° 63° (ENE) 13:13:25 435.822 SSB
Gurwin Techsat 1B 23 Oct 13:16:59 13:19:54 15° 59° (ENE) 13:22:49 435.225 FM
TMSAT-1 23 Oct 13:29:28 13:32:14 15° 59° (ENE) 13:35:00 436.925 FM
Sapphire 23 Oct 13:31:17 13:36:45 78° 59° (ENE) 13:42:11 437.095 MHz 1200 baud AX-25 AFSK
Oscar 19 23 Oct 13:35:38 13:40:48 90° 63° (ENE) 13:45:59 437.125 CW, 437.150 USB
SO-50 23 Oct 13:42:20 13:46:50 85° 123° (ESE) 13:51:29 436.795 FM
AO-27 23 Oct 13:49:23 13:54:25 52° 71° (ENE) 13:59:30 436.795 MHz FM
JAS-1B 23 Oct 13:51:39 13:57:42 85° 255° (WSW) 14:03:24 435.800 - 435.900 CW/SSB
PCSat 23 Oct 13:54:07 13:59:30 65° 244° (WSW) 14:04:50 145.825 MHz
ISS 23 Oct 14:00:46 14:04:06 83° 326° (NNW) 14:07:27 145.800 FM
Oscar 10/S400 23 Oct 14:15:05 14:32:18 39° 154° (SSE) 14:57:07 145.825 - 145.975 CW/USB, Beacon 145.810 USB
KITSAT 1 23 Oct 14:21:10 14:28:38 40° 315° (NW) 14:36:09 435.175 FM
Oscar 16 23 Oct 14:21:49 14:26:29 34° 263° (W) 14:31:09 437.025 USB, Beacon 2401.1428
AO-Echo 23 Oct 14:29:21 14:34:06 55° 260° (W) 14:39:03 ?
AO-7 23 Oct 14:33:49 14:40:19 27° 53° (NE) 14:46:50 29.400 - 29.500 MHz
Uribyol 2 23 Oct 14:37:54 14:43:00 55° 259° (W) 14:48:09 436.500 FM
ITAMSAT 1 23 Oct 14:43:34 14:48:38 52° 260° (W) 14:53:45 435.822 SSB
Gurwin Techsat 1B 23 Oct 14:53:52 14:59:10 80° 257° (WSW) 15:04:31 435.225 FM
TMSAT-1 23 Oct 15:06:08 15:11:26 84° 256° (WSW) 15:16:47 436.925 FM
UOSAT-12 23 Oct 15:14:30 15:19:06 69° 121° (ESE) 15:23:48 437.025 FM, 437.400 FM
Saudisat 1A 23 Oct 15:16:01 15:18:34 15° 37° (NE) 15:21:06 436.775 MHz
Sapphire 23 Oct 15:16:32 15:19:28 15° 257° (WSW) 15:22:24 437.095 MHz 1200 baud AX-25 AFSK
Oscar 19 23 Oct 15:19:42 15:20:50 11° 272° (W) 15:21:58 437.125 CW, 437.150 USB
SO-50 23 Oct 15:25:06 15:28:02 17° 323° (NW) 15:31:02 436.795 FM
AO-27 23 Oct 15:30:28 15:34:14 20° 268° (W) 15:38:02 436.795 MHz FM
JAS-2 23 Oct 15:32:57 15:34:19 11° 48° (NE) 15:35:43 435.800 - 435.900 CW/SSB, 435.910 FM
ISS 23 Oct 15:38:29 15:41:11 22° 345° (NNW) 15:43:54 145.800 FM
Uosat F 23 Oct 16:12:35 16:17:33 66° 73° (ENE) 16:22:34 435.120 FM
KITSAT 1 23 Oct 16:22:15 16:26:43 15° 342° (NNW) 16:31:11 435.175 FM
AO-7 23 Oct 16:24:02 16:32:19 77° 253° (WSW) 16:40:39 29.400 - 29.500 MHz
Hamsat 23 Oct 16:48:13 16:51:02 18° 65° (ENE) 16:53:51 145.90 MHz
Saudisat 1A 23 Oct 16:54:20 16:58:47 88° 58° (ENE) 17:03:12 436.775 MHz
UOSAT-12 23 Oct 16:56:16 16:59:43 20° 320° (NW) 17:03:13 437.025 FM, 437.400 FM
JAS-2 23 Oct 17:11:59 17:17:45 58° 70° (ENE) 17:24:19 435.800 - 435.900 CW/SSB, 435.910 FM
ISS 23 Oct 17:16:20 17:18:44 18° 6° (N) 17:21:08 145.800 FM
OPAL 23 Oct 17:48:23 17:53:06 41° 101° (E) 17:57:45 ?
Uosat F 23 Oct 17:53:58 17:56:48 15° 269° (W) 17:59:38 435.120 FM
AO-7 23 Oct 18:22:09 18:26:23 15° 272° (W) 18:30:38 29.400 - 29.500 MHz
KITSAT 1 23 Oct 18:22:15 18:26:17 14° 14° (NNE) 18:30:17 435.175 FM
Hamsat 23 Oct 18:22:40 18:26:41 42° 262° (W) 18:30:41 145.90 MHz
HO-68 23 Oct 18:48:30 18:51:32 13° 48° (NE) 18:54:33 435.675 MHz FM
ISS 23 Oct 18:52:54 18:56:05 40° 26° (NNE) 18:59:16 145.800 FM
JAS-2 23 Oct 18:58:51 19:03:24 23° 271° (W) 19:08:23 435.800 - 435.900 CW/SSB, 435.910 FM
SO-67 23 Oct 19:00:29 19:03:53 64° 76° (ENE) 19:07:19 435.3500 MHz FM
OPAL 23 Oct 19:27:45 19:31:45 25° 298° (WNW) 19:35:43 ?
STRAND 1 23 Oct 19:30:19 19:35:22 52° 100° (E) 19:40:22 ?
KITSAT 1 23 Oct 20:17:26 20:24:39 34° 42° (NE) 20:31:49 435.175 FM
ISS 23 Oct 20:29:45 20:32:43 30° 223° (SW) 20:35:40 145.800 FM
HO-68 23 Oct 20:30:48 20:37:49 62° 68° (ENE) 20:44:54 435.675 MHz FM
SO-50 23 Oct 20:33:36 20:36:49 17° 38° (NE) 20:40:02 436.795 FM
Oscar 11 23 Oct 20:34:31 20:37:03 15° 63° (ENE) 20:39:34 145.825 FM, Beacon 2401.500 USB
STRAND 1 23 Oct 21:10:21 21:14:10 21° 297° (WNW) 21:17:58 ?
ZACube-1 23 Oct 21:19:08 21:22:32 21° 66° (ENE) 21:25:54 437.345 MHz
UKube-1 23 Oct 21:25:45 21:30:02 60° 73° (ENE) 21:34:20 145.840 MHz, 145.915 MHz
